Change the Weather History Date:

Thursday, January 9, 2014

  Actual Average Record
Temperature  
Mean Temperature 50 °F -  
Max Temperature 59 °F 50 °F 60 °F (2007)
Min Temperature 37 °F 37 °F 26 °F (2012)
Degree Days  
Heating Degree Days 15    
Moisture  
Dew Point 43 °F    
Average Humidity 83    
Maximum Humidity 100    
Minimum Humidity 59    
Precipitation  
Precipitation 0.00 in - - ()
Sea Level Pressure  
Sea Level Pressure 30.21 in    
Wind  
Wind Speed 5 mph (ESE)    
Max Wind Speed 9 mph    
Max Gust Speed -    
Visibility 9 miles    
Events      
Averages and records for this station are not official NWS values.
T = Trace of Precipitation, MM = Missing Value Source: NWS Daily Summary

Daily Weather History Graph

Daily Weather History Graph

Search for Another Location

Airport or City:

Trip Planner

Search our weather history database for the weather conditions in past years. The results will help you decide how hot, cold, wet, or windy it might be!

Date:

Astronomy

Jan. 09, 2014 Rise Set
Actual Time 7:22 AM PST 5:02 PM PST
Civil Twilight 6:53 AM PST 5:31 PM PST
Nautical Twilight 6:20 AM PST 6:04 PM PST
Astronomical Twilight 5:48 AM PST 6:36 PM PST
Moon 12:30 PM PST (1/9) 1:37 AM PST (1/9)
Length of Visible Light 10h 38m
Length of Day
9h 39m
Waxing Gibbous, 67% of the Moon is Illuminated
Jan 9
Waxing Gibbous
Jan 15
Full
Jan 23
Last Quarter
Jan 30
New
Feb 6
First Quarter

Hourly Weather History & Observations

Time (PST) Temp. Windchill Dew Point Humidity Pressure Visibility Wind Dir Wind Speed Gust Speed Precip Events Conditions
2:45 AM 42.8 °F 39.3 °F 41.0 °F 93% 30.18 in 8.0 mi East 5.8 mph - N/A   Mostly Cloudy
3:45 AM 44.6 °F 41.4 °F 41.0 °F 87% 30.18 in 8.0 mi ESE 5.8 mph - N/A   Overcast
4:45 AM 42.8 °F 39.3 °F 41.0 °F 93% 30.17 in 8.0 mi ESE 5.8 mph - N/A   Mostly Cloudy
5:45 AM 42.8 °F 38.6 °F 41.0 °F 93% 30.18 in 8.0 mi ESE 6.9 mph - N/A   Mostly Cloudy
6:45 AM 44.6 °F 40.7 °F 42.8 °F 93% 30.18 in 7.0 mi SE 6.9 mph - N/A   Mostly Cloudy
7:45 AM 41.0 °F 36.4 °F 41.0 °F 100% 30.19 in 5.0 mi SSE 6.9 mph - N/A   Scattered Clouds
8:45 AM 46.4 °F 43.5 °F 44.6 °F 93% 30.23 in 6.0 mi East 5.8 mph - N/A   Scattered Clouds
9:17 AM 48.2 °F - 46.4 °F 93% 30.23 in 6.0 mi SE 9.2 mph - N/A   Mostly Cloudy
9:50 AM 50.0 °F - 48.2 °F 94% 30.24 in 6.0 mi ESE 6.9 mph - N/A   Overcast
10:45 AM 51.8 °F - 48.2 °F 88% 30.25 in 8.0 mi South 5.8 mph - N/A   Overcast
11:45 AM 55.4 °F - 48.2 °F 77% 30.23 in 9.0 mi South 6.9 mph - N/A   Mostly Cloudy
12:50 PM 57.2 °F - 48.2 °F 72% 30.21 in 10.0 mi Calm Calm - N/A   Scattered Clouds
1:55 PM 59.0 °F - 44.6 °F 59% 30.18 in 10.0 mi Calm Calm - N/A   Partly Cloudy
3:47 PM 59.0 °F - 44.6 °F 59% 30.19 in 10.0 mi West 3.5 mph - N/A   Mostly Cloudy
4:48 PM 59.0 °F - 44.6 °F 59% 30.20 in 10.0 mi NW 3.5 mph - N/A   Mostly Cloudy
5:45 PM 57.2 °F - 44.6 °F 63% 30.20 in 10.0 mi North 3.5 mph - N/A   Mostly Cloudy
6:45 PM 50.0 °F - 42.8 °F 76% 30.21 in 10.0 mi West 3.5 mph - N/A   Mostly Cloudy
7:45 PM 51.8 °F - 42.8 °F 71% 30.21 in 10.0 mi Calm Calm - N/A   Mostly Cloudy
8:50 PM 46.4 °F 45.2 °F 41.0 °F 81% 30.22 in 10.0 mi ENE 3.5 mph - N/A   Scattered Clouds
9:45 PM 46.4 °F 45.2 °F 41.0 °F 81% 30.23 in 10.0 mi NE 3.5 mph - N/A   Partly Cloudy
10:45 PM 41.0 °F - 39.2 °F 93% 30.23 in 10.0 mi Calm Calm - N/A   Partly Cloudy
11:30 PM 37.4 °F - 37.4 °F 100% 30.23 in 10.0 mi Calm Calm - N/A   Partly Cloudy